Wind_Speed
28 28 28 28 27 27 26 26 26 26 26 25 25 24 23 21 20 19 17 17 18 17 17 17 17 17 17 18 19 19 19 18 18 17 17 17 17 17 17 16 16 15 15
34 33 32 32 32 31 31 30 30 30 29 29 28 28 27 26 24 23 23 22 22 21 21 20 20 19 19 19 20 20 21 21 20 20 19 18 19 19 19 19 18 18 17
38 38 37 37 37 36 35 35 35 35 34 33 32 32 31 30 29 28 27 27 26 25 25 24 23 23 22 21 21 21 22 22 22 22 22 21 21 21 21 21 21 20 20
42 42 41 41 41 41 41 41 40 41 41 40 38 36 36 35 33 32 31 30 30 28 27 27 27 26 26 25 24 23 23 24 24 24 24 24 23 23 23 23 23 22 22
44 44 44 44 44 44 44 45 45 46 46 45 43 40 39 38 36 34 33 33 32 31 30 28 28 29 29 29 28 27 26 25 26 26 26 26 25 25 24 25 25 24 24
46 46 46 47 47 47 47 47 48 49 49 48 46 44 42 40 39 37 35 34 34 33 31 30 29 29 30 31 30 30 29 28 27 27 27 27 27 26 26 26 26 26 26
49 49 49 48 48 48 48 48 49 50 51 51 51 48 44 42 40 38 36 35 36 35 33 32 31 30 29 31 31 31 31 30 29 29 29 29 28 28 28 28 28 28 28
51 52 49 48 49 48 48 48 50 51 51 51 50 46 42 41 41 38 37 35 35 35 35 34 32 31 29 29 30 32 32 31 31 30 30 31 30 30 30 29 29 29 29
53 52 50 50 50 50 50 50 50 51 50 48 47 44 43 42 41 39 39 37 35 35 35 35 33 31 30 29 28 29 31 31 31 31 31 32 32 32 32 31 31 31 30
54 53 53 53 53 53 52 51 50 50 48 46 45 44 42 41 40 39 38 38 35 35 35 33 31 29 28 27 26 25 28 30 31 31 32 33 33 33 34 33 32 32 32
55 56 55 55 54 53 52 51 49 48 46 43 41 42 42 41 40 39 36 36 35 34 33 31 30 27 26 25 24 23 25 27 28 30 32 33 34 34 34 34 34 33 33
54 55 55 54 54 52 51 50 48 45 43 40 39 39 40 41 40 39 35 34 34 33 32 29 28 27 25 24 22 23 24 26 28 30 31 33 34 35 35 36 36 35 34
55 55 55 55 54 52 50 48 46 43 41 38 36 37 39 39 38 36 33 32 32 31 30 28 27 27 26 25 24 24 25 27 29 30 32 33 35 36 37 37 38 37 37
57 56 56 55 54 52 49 47 44 40 37 36 35 35 36 36 34 32 32 32 31 30 29 28 27 27 27 27 27 27 27 28 30 32 33 34 36 38 39 39 39 38 38
57 56 55 53 51 49 47 45 41 37 35 34 34 34 35 33 31 31 30 30 30 29 28 28 28 28 28 28 29 29 28 29 31 32 34 35 36 37 38 39 40 40 39
55 54 53 50 46 44 43 41 38 36 34 33 33 33 32 29 28 28 29 29 28 28 28 28 28 29 30 30 30 31 31 31 31 32 33 34 36 37 39 40 41 42 41
50 49 45 42 41 40 39 38 37 35 33 32 32 31 30 28 27 27 28 28 28 28 29 29 30 30 31 32 32 32 33 32 32 32 33 33 34 37 39 41 42 43 43
39 39 37 36 35 35 34 33 32 31 32 31 31 30 28 26 26 26 27 28 29 30 30 31 32 32 33 34 35 35 35 35 35 34 34 33 34 35 38 39 41 42 41
28 28 28 29 29 30 31 31 29 29 29 30 29 27 25 25 25 25 26 27 29 30 31 32 33 34 35 36 37 38 38 37 37 36 36 35 34 35 36 38 39 40 40
20 21 22 22 23 25 27 27 27 27 28 27 25 23 22 22 24 25 26 27 28 30 31 32 33 34 35 37 38 38 38 38 38 38 37 37 35 35 35 36 38 38 38
13 13 16 18 21 23 23 24 24 24 23 21 21 20 20 21 22 23 25 27 28 29 31 32 33 35 36 37 38 38 38 38 38 38 38 37 36 36 35 35 35 36 36
8 5 6 10 13 15 16 17 18 18 18 18 18 18 20 21 22 23 24 25 27 28 29 31 32 33 35 36 37 37 36 37 37 37 37 37 36 36 35 34 33 32 34
6 4 4 6 8 10 11 13 14 15 16 17 17 18 19 20 21 22 22 24 25 26 27 28 29 31 33 34 34 35 35 36 36 35 35 35 35 35 35 34 33 31 29
7 6 6 7 8 9 10 11 12 13 14 15 16 16 17 17 17 18 19 20 22 23 24 26 27 29 30 32 32 33 33 34 34 34 34 34 34 33 32 32 32 30 27
9 8 8 8 9 9 10 10 10 10 11 11 11 12 13 13 14 15 16 18 19 21 23 25 27 29 30 31 32 33 33 33 33 33 33 33 32 31 30 31 31 31 27
11 10 9 9 8 7 7 7 8 8 8 7 8 9 10 11 12 14 15 17 20 22 24 26 27 29 30 31 32 32 33 33 32 32 32 32 31 30 29 29 28 28 28
Wind_Direction
293 293 293 293 294 296 297 296 294 289 283 279 275 274 277 278 280 284 288 291 294 296 296 296 295 292 288 284 281 281 281 280 281 281 283 285 285 285 286 286 285 283 279
293 294 294 295 295 296 297 296 295 292 289 284 279 276 276 278 278 279 282 283 285 287 288 289 289 288 287 284 281 278 277 278 278 279 280 282 283 283 282 282 282 281 279
291 292 293 294 295 296 296 295 294 292 290 286 281 278 275 276 278 278 279 281 282 281 282 282 282 282 282 282 280 278 276 275 276 278 279 279 280 281 280 279 279 278 277
288 289 290 291 293 294 294 293 292 291 288 285 280 276 273 273 275 277 278 280 281 280 278 277 278 278 278 277 276 275 275 273 273 275 277 278 278 279 279 277 276 276 276
288 288 290 290 291 292 292 292 292 292 289 286 283 278 274 272 273 276 277 278 279 279 278 276 275 275 275 274 273 272 271 271 271 271 273 275 276 278 278 277 275 274 273
287 287 287 287 289 290 290 291 293 293 292 287 284 281 276 273 272 274 277 279 279 279 279 278 276 273 272 272 271 271 270 268 268 268 269 271 273 275 277 277 275 272 271
285 285 284 285 287 289 289 290 293 295 294 289 284 280 274 271 271 272 275 277 278 280 280 280 280 276 272 270 270 270 268 267 266 265 266 267 270 272 275 276 275 272 269
282 283 282 283 285 287 289 291 294 294 294 291 285 278 271 269 269 271 274 273 275 278 281 282 282 280 276 270 268 268 268 266 265 265 265 265 267 270 272 274 273 270 267
281 281 281 283 286 287 289 291 293 293 293 289 283 275 270 267 266 269 272 273 274 276 279 281 281 280 278 275 270 268 268 266 264 264 264 264 265 267 270 272 271 269 266
283 284 285 286 287 288 288 289 291 292 290 286 279 272 267 264 263 265 269 272 274 275 278 280 279 279 277 276 275 272 270 268 267 265 265 264 264 266 268 270 271 268 267
281 282 283 284 284 285 286 287 288 289 288 283 274 267 262 261 262 263 264 269 273 275 277 277 277 276 275 276 278 277 274 271 269 268 267 266 265 265 266 267 268 268 267
280 281 281 281 282 282 283 285 285 285 285 281 271 263 259 259 259 259 262 265 270 275 276 275 274 273 274 275 276 274 274 272 270 270 271 269 267 265 266 266 266 266 266
280 279 278 278 279 279 280 282 282 281 280 276 268 262 258 257 255 257 261 265 269 272 273 272 271 271 273 274 273 271 272 272 272 271 270 269 268 267 267 267 265 265 265
281 279 277 276 276 276 276 277 278 277 275 270 263 258 255 253 253 256 262 267 268 269 270 270 270 271 272 274 275 275 275 274 274 273 273 272 270 268 267 266 265 264 264
282 280 277 275 273 271 271 271 271 269 268 265 260 256 254 250 252 257 262 265 266 268 268 268 270 272 274 277 279 280 280 280 279 278 277 275 274 271 267 264 263 263 263
281 278 275 272 268 266 264 263 263 261 262 261 260 258 252 250 253 258 261 262 264 265 267 268 270 272 275 278 280 282 283 284 284 283 282 280 277 273 269 265 264 263 261
282 277 270 265 264 260 256 255 257 257 259 258 259 256 253 253 254 256 259 260 262 264 267 270 271 273 275 277 279 280 282 285 286 286 285 283 280 276 271 267 265 261 259
281 274 265 262 259 254 250 249 251 253 255 254 254 253 252 254 255 257 259 261 263 266 268 271 273 274 276 277 278 280 281 283 284 285 285 284 282 280 276 271 266 261 258
282 272 261 257 253 248 245 246 245 247 248 251 251 252 253 256 258 260 263 264 267 269 271 273 274 276 277 278 279 280 281 282 283 283 283 284 283 282 279 273 267 262 258
288 271 260 253 248 246 241 239 239 241 245 247 249 252 256 259 261 263 266 269 272 273 274 275 276 278 278 279 280 280 280 281 281 281 281 280 280 282 282 278 271 264 259
306 281 259 248 242 234 233 234 236 240 242 247 250 253 258 263 267 269 272 274 276 277 278 278 279 280 281 281 281 280 280 280 280 281 280 279 278 280 281 280 276 265 259
324 306 253 230 228 229 232 235 238 242 247 252 254 257 261 264 267 270 273 276 278 281 281 282 282 283 283 283 282 282 282 281 281 279 278 277 277 277 280 279 276 267 258
311 297 263 241 232 232 234 238 242 247 250 253 256 259 262 265 269 273 277 280 283 286 288 289 289 289 289 288 286 284 283 282 281 279 278 277 276 276 278 278 275 271 262
295 286 276 262 256 252 247 248 251 254 257 258 260 263 267 271 275 280 285 288 292 294 296 296 295 294 292 291 289 287 285 283 281 280 278 277 275 276 276 277 275 272 265
284 279 275 273 268 264 260 257 255 257 261 262 264 269 274 279 285 290 293 296 298 300 301 301 299 298 296 293 291 289 286 283 281 278 276 275 274 274 275 274 275 273 270
278 273 272 273 268 262 260 258 258 262 266 269 275 281 285 290 295 299 301 303 304 304 304 302 300 298 297 295 293 291 288 284 281 278 276 275 274 273 272 273 273 272 272
Height
5901 5900 5899 5899 5898 5897 5897 5896 5895 5895 5894 5893 5892 5892 5891 5890 5889 5888 5887 5886 5884 5883 5881 5880 5879 5879 5879 5879 5879 5879 5879 5880 5880 5879 5879 5879 5879 5879 5879 5878 5878 5877 5877
5896 5896 5895 5894 5893 5893 5892 5892 5891 5890 5889 5888 5888 5887 5886 5885 5884 5883 5882 5882 5880 5879 5878 5877 5875 5875 5874 5874 5874 5874 5875 5875 5876 5876 5875 5875 5875 5875 5875 5875 5875 5875 5874
5891 5890 5889 5888 5888 5887 5887 5886 5885 5884 5883 5883 5882 5881 5880 5879 5878 5877 5876 5876 5875 5874 5873 5872 5871 5870 5869 5869 5869 5869 5869 5870 5870 5871 5871 5871 5871 5871 5871 5871 5872 5871 5871
5884 5883 5882 5882 5881 5880 5880 5879 5878 5877 5875 5874 5873 5873 5872 5872 5871 5871 5870 5869 5868 5868 5867 5866 5865 5864 5864 5863 5863 5863 5863 5864 5864 5865 5866 5866 5866 5866 5866 5867 5867 5867 5867
5877 5876 5874 5874 5873 5873 5872 5870 5869 5868 5867 5865 5863 5863 5863 5863 5863 5863 5862 5862 5861 5860 5860 5860 5859 5858 5857 5856 5856 5856 5856 5857 5858 5858 5859 5860 5860 5861 5861 5861 5862 5862 5863
5868 5868 5866 5865 5864 5864 5863 5861 5860 5858 5857 5854 5852 5852 5853 5853 5853 5854 5854 5854 5853 5852 5852 5851 5851 5851 5850 5849 5849 5849 5849 5850 5850 5851 5852 5853 5854 5854 5855 5855 5856 5856 5857
5858 5857 5857 5856 5855 5854 5853 5852 5850 5848 5846 5843 5841 5841 5842 5843 5843 5844 5845 5845 5844 5843 5843 5843 5842 5843 5842 5842 5841 5841 5841 5842 5843 5844 5845 5846 5847 5848 5848 5849 5850 5850 5851
5847 5846 5845 5845 5844 5843 5842 5842 5839 5837 5835 5831 5828 5828 5830 5833 5833 5834 5836 5836 5836 5836 5835 5834 5834 5833 5833 5834 5833 5832 5833 5834 5835 5836 5837 5838 5839 5840 5841 5842 5843 5843 5844
5836 5834 5833 5833 5832 5832 5831 5831 5829 5826 5823 5820 5817 5817 5819 5822 5823 5826 5826 5827 5828 5828 5827 5826 5826 5825 5824 5824 5825 5825 5824 5825 5827 5828 5829 5830 5831 5832 5833 5834 5835 5836 5837
5824 5822 5823 5822 5822 5821 5820 5819 5817 5815 5812 5809 5807 5807 5809 5810 5813 5816 5818 5817 5819 5819 5819 5818 5818 5817 5817 5816 5816 5818 5817 5817 5818 5819 5821 5822 5823 5824 5825 5826 5827 5828 5829
5814 5813 5812 5811 5810 5810 5809 5808 5806 5804 5801 5798 5797 5797 5799 5801 5803 5806 5809 5810 5810 5810 5810 5810 5810 5810 5809 5808 5809 5810 5810 5810 5810 5811 5812 5814 5815 5816 5817 5818 5819 5820 5820
5802 5801 5800 5799 5798 5798 5798 5796 5795 5793 5790 5788 5788 5788 5789 5791 5793 5796 5799 5801 5801 5801 5801 5802 5802 5802 5801 5801 5802 5802 5802 5802 5803 5803 5804 5805 5806 5807 5809 5809 5810 5811 5812
5788 5788 5787 5786 5786 5786 5786 5785 5784 5783 5781 5779 5779 5779 5780 5782 5784 5787 5789 5792 5793 5793 5793 5794 5795 5795 5795 5795 5796 5795 5795 5795 5795 5796 5796 5797 5798 5799 5800 5801 5802 5803 5803
5774 5773 5772 5772 5773 5773 5773 5773 5773 5773 5771 5771 5770 5771 5771 5773 5775 5778 5780 5783 5784 5785 5785 5786 5787 5787 5788 5788 5788 5788 5788 5788 5788 5788 5788 5788 5789 5790 5791 5792 5792 5793 5794
5758 5756 5756 5757 5758 5759 5761 5761 5762 5763 5762 5762 5762 5763 5764 5765 5767 5769 5772 5774 5776 5777 5778 5778 5779 5780 5780 5780 5780 5780 5780 5779 5779 5779 5779 5779 5779 5779 5780 5781 5782 5783 5784
5743 5741 5740 5741 5743 5745 5748 5750 5751 5753 5754 5754 5755 5755 5756 5757 5759 5762 5764 5766 5767 5769 5769 5770 5771 5771 5771 5771 5771 5771 5771 5770 5770 5770 5769 5769 5769 5769 5769 5770 5771 5772 5773
5727 5725 5726 5727 5730 5733 5735 5739 5741 5744 5745 5746 5747 5748 5749 5750 5752 5755 5757 5758 5760 5761 5762 5762 5763 5763 5763 5762 5762 5762 5762 5761 5761 5760 5760 5759 5758 5758 5758 5758 5759 5760 5761
5714 5712 5714 5716 5719 5722 5725 5729 5732 5735 5737 5738 5739 5741 5742 5743 5745 5748 5750 5751 5753 5754 5754 5754 5754 5754 5754 5754 5753 5753 5753 5752 5752 5751 5750 5749 5748 5748 5747 5746 5747 5748 5749
5704 5703 5704 5707 5710 5713 5717 5721 5724 5727 5729 5731 5732 5734 5735 5737 5739 5741 5743 5744 5745 5746 5746 5746 5746 5746 5745 5745 5745 5744 5743 5742 5742 5741 5740 5740 5739 5738 5736 5736 5735 5736 5737
5697 5696 5698 5700 5703 5707 5710 5714 5717 5719 5722 5724 5726 5728 5730 5732 5734 5735 5736 5737 5738 5738 5738 5738 5738 5737 5736 5736 5735 5734 5734 5732 5731 5731 5730 5729 5729 5728 5726 5725 5725 5725 5726
5694 5692 5694 5696 5698 5701 5704 5707 5710 5713 5715 5718 5720 5722 5724 5726 5727 5728 5729 5730 5730 5730 5730 5730 5729 5728 5727 5726 5725 5724 5723 5722 5721 5720 5719 5719 5719 5718 5717 5716 5714 5714 5715
5693 5692 5693 5694 5696 5698 5700 5703 5706 5708 5710 5713 5715 5717 5719 5720 5721 5722 5722 5722 5722 5722 5721 5721 5720 5719 5718 5717 5715 5714 5713 5712 5711 5710 5709 5709 5708 5707 5707 5706 5705 5704 5704
5693 5693 5693 5694 5695 5696 5698 5700 5702 5704 5706 5708 5710 5712 5713 5714 5714 5715 5715 5715 5715 5714 5713 5712 5711 5710 5708 5707 5705 5704 5702 5701 5700 5699 5699 5698 5698 5698 5697 5697 5697 5696 5695
5693 5692 5692 5693 5693 5694 5695 5697 5698 5700 5702 5704 5705 5706 5707 5708 5709 5709 5709 5709 5708 5707 5706 5705 5703 5701 5699 5698 5696 5694 5693 5691 5690 5689 5689 5688 5688 5688 5688 5688 5687 5687 5687
5691 5691 5691 5691 5691 5692 5693 5694 5695 5697 5698 5700 5701 5702 5703 5704 5704 5704 5704 5703 5702 5701 5699 5697 5695 5693 5691 5689 5687 5685 5683 5682 5681 5680 5679 5679 5678 5678 5678 5679 5679 5679 5680
5689 5688 5688 5689 5689 5690 5691 5692 5693 5694 5696 5697 5698 5698 5699 5699 5699 5699 5699 5698 5697 5695 5693 5691 5689 5686 5684 5681 5678 5676 5674 5672 5671 5670 5669 5669 5669 5669 5670 5670 5671 5671 5672